Change the Weather History Date:

Thursday, December 6, 2012

  Actual Average Record
Temperature  
Mean Temperature 33 °F -  
Max Temperature 39 °F 44 °F 69 °F (1998)
Min Temperature 27 °F 30 °F 12 °F (2002)
Degree Days  
Heating Degree Days 32    
Moisture  
Dew Point 20 °F    
Average Humidity 62    
Maximum Humidity 78    
Minimum Humidity 48    
Precipitation  
Precipitation 0.00 in - - ()
Sea Level Pressure  
Sea Level Pressure 30.32 in    
Wind  
Wind Speed 4 mph (NNE)    
Max Wind Speed 9 mph    
Max Gust Speed -    
Visibility 10 miles    
Events      
Averages and records for this station are not official NWS values.
T = Trace of Precipitation, MM = Missing Value Source: NWS Daily Summary

Daily Weather History Graph

Daily Weather History Graph

Search for Another Location

Airport or City:

Trip Planner

Search our weather history database for the weather conditions in past years. The results will help you decide how hot, cold, wet, or windy it might be!

Date:

Astronomy

Dec. 06, 2012 Rise Set
Actual Time 7:13 AM EST 4:39 PM EST
Civil Twilight 6:43 AM EST 5:09 PM EST
Nautical Twilight 6:09 AM EST 5:43 PM EST
Astronomical Twilight 5:36 AM EST 6:16 PM EST
Moon No Moon Rise 12:04 PM EST (12/6)
Length of Visible Light 10h 26m
Length of Day
9h 26m
Waning Gibbous, 49% of the Moon is Illuminated
Dec 6
Waning Gibbous
Dec 13
New
Dec 20
First Quarter
Dec 28
Full
Jan 4
Last Quarter

Hourly Weather History & Observations

Time (EST) Temp. Windchill Dew Point Humidity Pressure Visibility Wind Dir Wind Speed Gust Speed Precip Events Conditions
12:53 AM 30.9 °F 22.8 °F 19.0 °F 61% 30.31 in 10.0 mi NW 9.2 mph - N/A   Clear
1:53 AM 30.0 °F 24.1 °F 18.0 °F 61% 30.32 in 10.0 mi NW 5.8 mph - N/A   Clear
2:53 AM 30.0 °F 26.5 °F 18.0 °F 61% 30.34 in 10.0 mi NNW 3.5 mph - N/A   Clear
3:53 AM 28.9 °F 22.8 °F 18.0 °F 64% 30.32 in 10.0 mi North 5.8 mph - N/A   Clear
4:53 AM 28.0 °F 22.8 °F 18.0 °F 66% 30.33 in 10.0 mi NNW 4.6 mph - N/A   Clear
5:53 AM 27.0 °F 21.6 °F 18.0 °F 69% 30.35 in 10.0 mi NNW 4.6 mph - N/A   Clear
6:53 AM 28.0 °F 24.2 °F 17.1 °F 63% 30.36 in 10.0 mi NNW 3.5 mph - N/A   Clear
7:53 AM 27.0 °F - 18.0 °F 69% 30.38 in 10.0 mi Calm Calm - N/A   Clear
8:53 AM 30.9 °F - 19.0 °F 61% 30.38 in 10.0 mi Calm Calm - N/A   Clear
9:53 AM 33.1 °F 30.0 °F 19.0 °F 56% 30.39 in 10.0 mi NNE 3.5 mph - N/A   Clear
10:53 AM 34.0 °F - 19.9 °F 56% 30.38 in 10.0 mi Calm Calm - N/A   Clear
11:53 AM 37.0 °F 34.5 °F 19.9 °F 50% 30.34 in 10.0 mi Variable 3.5 mph - N/A   Clear
12:53 PM 37.9 °F - 19.9 °F 48% 30.32 in 10.0 mi Calm Calm - N/A   Clear
1:53 PM 37.9 °F 35.5 °F 19.9 °F 48% 30.29 in 10.0 mi East 3.5 mph - N/A   Clear
2:53 PM 39.0 °F 36.8 °F 21.0 °F 49% 30.29 in 10.0 mi Variable 3.5 mph - N/A   Clear
3:53 PM 37.9 °F 34.4 °F 23.0 °F 55% 30.28 in 10.0 mi East 4.6 mph - N/A   Clear
4:53 PM 36.0 °F - 23.0 °F 59% 30.28 in 10.0 mi Calm Calm - N/A   Clear
5:53 PM 34.0 °F 31.0 °F 21.9 °F 61% 30.28 in 10.0 mi ENE 3.5 mph - N/A   Clear
6:53 PM 32.0 °F 28.7 °F 21.9 °F 66% 30.29 in 10.0 mi SSE 3.5 mph - N/A   Clear
7:53 PM 30.9 °F 27.5 °F 21.0 °F 67% 30.29 in 10.0 mi South 3.5 mph - N/A   Clear
9:53 PM 28.9 °F - 21.0 °F 72% 30.29 in 10.0 mi Calm Calm - N/A   Clear
10:53 PM 28.0 °F 24.2 °F 21.9 °F 78% 30.28 in 10.0 mi SE 3.5 mph - N/A   Clear
11:53 PM 28.0 °F 22.8 °F 21.0 °F 75% 30.26 in 9.0 mi ENE 4.6 mph - N/A   Clear